Overview Statistics Trail Chart Weather Telemetry Raw packets
 

This is the latest recevied weather packets stored in our database for station/object K5GHS-1. If no packets are shown the sender has not sent any weather packets the latest 10 day(s).

<< 21 22 23 24 25 26 27 >>
Time Temp. Humidity Pressure Rain* Wind** Luminosity Snow
1788562204 35.56° C 47% 1009.9 hPa 0 mm - 40 W/m² -
1788561900 35° C 48% 1009.7 hPa 0 mm - 234 W/m² -
1788561600 35.56° C 48% 1010 hPa 0 mm - 37 W/m² -
1788561299 35.56° C 47% 1009.9 hPa 0 mm - 51 W/m² -
1788560995 35.56° C 47% 1010 hPa 0 mm - 279 W/m² -
1788560690 36.67° C 46% 1010 hPa 0 mm - 44 W/m² -
1788560384 37.22° C 44% 1010.1 hPa 0 mm - 85 W/m² -
1788560079 37.22° C 45% 1010 hPa 0 mm - 79 W/m² -
1788559774 36.67° C 44% 1009.9 hPa 0 mm - 330 W/m² -
1788559468 36.67° C 44% 1010.1 hPa 0 mm - 322 W/m² -
1788559164 37.22° C 43% 1009.9 hPa 0 mm - 365 W/m² -
1788558858 36.67° C 44% 1009.9 hPa 0 mm - 81 W/m² -
1788558554 37.22° C 42% 1010.2 hPa 0 mm - 256 W/m² -
1788558250 37.22° C 43% 1010.3 hPa 0 mm - 406 W/m² -
1788557948 36.67° C 44% 1010.2 hPa 0 mm - 418 W/m² -
1788557643 36.67° C 44% 1010.4 hPa 0 mm - 287 W/m² -
1788557339 36.67° C 43% 1010.5 hPa 0 mm - 127 W/m² -
1788557038 36.67° C 44% 1010.3 hPa 0 mm - 475 W/m² -
1788556728 36.67° C 44% 1010.3 hPa 0 mm - 473 W/m² -
1788556424 36.11° C 44% 1010.5 hPa 0 mm - 481 W/m² -
1788556118 35.56° C 46% 1010.5 hPa 0 mm - 382 W/m² -
1788555812 35.56° C 46% 1010.6 hPa 0 mm - 62 W/m² -
1788555509 36.11° C 46% 1010.7 hPa 0 mm - 69 W/m² -
1788555204 36.11° C 46% 1010.6 hPa 0 mm - 81 W/m² -
1788554901 36.11° C 47% 1010.9 hPa 0 mm - 112 W/m² -

* Rain latest hour (hover to see other rain measurements)
** Current wind speed in m/s (hover to see current wind gust speed)